This is the latest recevied weather packets stored in our database for station/object OK1CBR-13. If no packets are shown the sender has not sent any weather packets the latest 10 day(s).
| Time | Temp. | Humidity | Pressure | Rain* | Wind** | Luminosity | Snow |
|---|---|---|---|---|---|---|---|
| 1777624052 | 15° C | 44% | 1029.8 hPa | - | - | - | - |
| 1777623452 | 15° C | 45% | 1030 hPa | - | - | - | - |
| 1777622852 | 15° C | 46% | 1030.1 hPa | - | - | - | - |
| 1777622252 | 13.89° C | 47% | 1030.1 hPa | - | - | - | - |
| 1777621652 | 13.33° C | 48% | 1030.2 hPa | - | - | - | - |
| 1777621052 | 12.78° C | 51% | 1030.3 hPa | - | - | - | - |
| 1777620452 | 12.22° C | 52% | 1030.3 hPa | - | - | - | - |
| 1777619852 | 11.67° C | 55% | 1030.3 hPa | - | - | - | - |
| 1777619252 | 11.11° C | 54% | 1030.3 hPa | - | - | - | - |
| 1777618652 | 10.56° C | 57% | 1030.3 hPa | - | - | - | - |
| 1777618052 | 10° C | 58% | 1030.3 hPa | - | - | - | - |
| 1777617452 | 9.44° C | 61% | 1030.3 hPa | - | - | - | - |
| 1777616852 | 8.89° C | 62% | 1030.3 hPa | - | - | - | - |
| 1777616252 | 8.33° C | 63% | 1030.3 hPa | - | - | - | - |
| 1777615652 | 8.33° C | 63% | 1030.4 hPa | - | - | - | - |
| 1777615052 | 7.78° C | 65% | 1030.2 hPa | - | - | - | - |
| 1777614452 | 7.22° C | 66% | 1030.2 hPa | - | - | - | - |
| 1777613852 | 6.67° C | 68% | 1030.3 hPa | - | - | - | - |
| 1777613252 | 6.67° C | 69% | 1030.3 hPa | - | - | - | - |
| 1777612652 | 6.11° C | 70% | 1030.3 hPa | - | - | - | - |
| 1777612052 | 6.11° C | 71% | 1030.3 hPa | - | - | - | - |
| 1777611452 | 6.11° C | 71% | 1030.3 hPa | - | - | - | - |
| 1777610852 | 6.11° C | 72% | 1030.3 hPa | - | - | - | - |
| 1777610252 | 5.56° C | 73% | 1030.4 hPa | - | - | - | - |
| 1777609653 | 5° C | 73% | 1030.3 hPa | - | - | - | - |
* Rain since midnight (hover to see other rain measurements)
** Current wind speed in m/s (hover to see current wind gust speed)